• In Austria
  • List of Countries
  • For 7 days
  • Water Temperature
  • Satellite Maps
  • Weather Map
  • News
  • Weather Widgets
  • user-avatar
    Login

    Hourly Weather Sidi Bu-l-Abbas

    Today, 18 October, Wednesday

    Time Temperature Precipitation Wind Pressure Humidity
    00:00 +23°C° 0 mm 2 mps 723 mmHg 49%
    01:00 +23°C° 0 mm 2 mps 722 mmHg 47%
    02:00 +23°C° 0 mm 2 mps 722 mmHg 45%
    03:00 +21°C° 0 mm 2 mps 721 mmHg 43%
    04:00 +21°C° 0 mm 2 mps 721 mmHg 42%
    05:00 +21°C° 0 mm 2 mps 721 mmHg 42%
    06:00 +21°C° 0 mm 3 mps 721 mmHg 42%
    07:00 +24°C° 0 mm 3 mps 721 mmHg 39%
    08:00 +25°C° 0 mm 3 mps 721 mmHg 35%
    09:00 +26°C° 0 mm 3 mps 721 mmHg 32%
    10:00 +27°C° 0 mm 4 mps 721 mmHg 32%
    11:00 +27°C° 0 mm 5 mps 721 mmHg 33%
    12:00 +28°C° 0 mm 6 mps 721 mmHg 33%
    13:00 +27°C° 0.1 mm 6 mps 720 mmHg 39%
    14:00 +25°C° 0.1 mm 5 mps 720 mmHg 45%
    15:00 +23°C° 0.1 mm 5 mps 719 mmHg 51%
    16:00 +22°C° 0.6 mm 4 mps 719 mmHg 55%
    17:00 +22°C° 0.6 mm 3 mps 719 mmHg 59%
    18:00 +21°C° 0.6 mm 2 mps 720 mmHg 62%
    19:00 +21°C° 0.7 mm 2 mps 720 mmHg 63%
    20:00 +21°C° 0.7 mm 3 mps 720 mmHg 63%
    21:00 +20°C° 0.7 mm 3 mps 720 mmHg 63%
    22:00 +20°C° 0.3 mm 3 mps 720 mmHg 62%
    23:00 +20°C° 0.3 mm 3 mps 720 mmHg 62%

    Tomorrow, 19 October, Thursday

    Time Temperature Precipitation Wind Pressure Humidity
    00:00 +20°C° 0.3 mm 4 mps 720 mmHg 62%
    01:00 +19°C° 0.1 mm 4 mps 720 mmHg 61%
    02:00 +19°C° 0.1 mm 4 mps 719 mmHg 61%
    03:00 +19°C° 0.1 mm 4 mps 719 mmHg 60%
    04:00 +19°C° 0.3 mm 4 mps 719 mmHg 62%
    05:00 +19°C° 0.3 mm 4 mps 719 mmHg 64%
    06:00 +19°C° 0.3 mm 4 mps 719 mmHg 66%
    07:00 +19°C° 1.1 mm 5 mps 719 mmHg 66%
    08:00 +19°C° 1.1 mm 6 mps 719 mmHg 66%
    09:00 +18°C° 1.1 mm 7 mps 719 mmHg 66%
    10:00 +20°C° 0.6 mm 7 mps 719 mmHg 63%
    11:00 +20°C° 0.6 mm 8 mps 719 mmHg 60%
    12:00 +21°C° 0.6 mm 8 mps 719 mmHg 57%
    13:00 +21°C° 0.3 mm 8 mps 719 mmHg 58%
    14:00 +21°C° 0.3 mm 8 mps 719 mmHg 58%
    15:00 +21°C° 0.3 mm 8 mps 718 mmHg 58%
    16:00 +21°C° 0.6 mm 7 mps 719 mmHg 62%
    17:00 +20°C° 0.6 mm 7 mps 719 mmHg 66%
    18:00 +20°C° 0.6 mm 6 mps 719 mmHg 71%
    19:00 +20°C° 0.5 mm 6 mps 719 mmHg 72%
    20:00 +18°C° 0.5 mm 7 mps 720 mmHg 73%
    21:00 +18°C° 0.5 mm 7 mps 720 mmHg 75%
    22:00 +18°C° 0.5 mm 7 mps 720 mmHg 75%
    23:00 +18°C° 0.5 mm 7 mps 720 mmHg 76%

    Day after tomorrow, 20 October, Friday

    Time Temperature Precipitation Wind Pressure Humidity
    00:00 +18°C° 0.5 mm 7 mps 720 mmHg 77%
    01:00 +17°C° 0.4 mm 7 mps 720 mmHg 79%
    02:00 +17°C° 0.4 mm 7 mps 720 mmHg 80%
    03:00 +17°C° 0.4 mm 6 mps 720 mmHg 82%
    04:00 +17°C° 0.3 mm 6 mps 720 mmHg 82%
    05:00 +17°C° 0.3 mm 6 mps 720 mmHg 83%
    06:00 +17°C° 0.3 mm 5 mps 721 mmHg 83%
    07:00 +17°C° 0.2 mm 6 mps 721 mmHg 78%
    08:00 +19°C° 0.2 mm 6 mps 722 mmHg 73%
    09:00 +20°C° 0.2 mm 6 mps 723 mmHg 68%
    10:00 +21°C° 0 mm 6 mps 723 mmHg 65%
    11:00 +22°C° 0 mm 6 mps 723 mmHg 61%
    12:00 +22°C° 0 mm 6 mps 723 mmHg 58%
    13:00 +22°C° 0 mm 6 mps 723 mmHg 57%
    14:00 +23°C° 0 mm 5 mps 722 mmHg 56%
    15:00 +23°C° 0 mm 5 mps 722 mmHg 55%
    16:00 +22°C° 0 mm 4 mps 723 mmHg 59%
    17:00 +21°C° 0 mm 3 mps 723 mmHg 63%
    18:00 +21°C° 0 mm 2 mps 723 mmHg 66%
    19:00 +20°C° 0 mm 2 mps 723 mmHg 68%
    20:00 +21°C° 0 mm 1 mps 724 mmHg 70%
    21:00 +20°C° 0 mm 1 mps 724 mmHg 72%
    22:00 +20°C° 0 mm 1 mps 724 mmHg 72%
    23:00 +20°C° 0 mm 1 mps 724 mmHg 71%

    21 October, Saturday

    Time Temperature Precipitation Wind Pressure Humidity
    00:00 +20°C° 0 mm 1 mps 724 mmHg 71%
    01:00 +19°C° 0 mm 1 mps 724 mmHg 71%
    02:00 +19°C° 0 mm 1 mps 724 mmHg 71%
    03:00 +19°C° 0 mm 1 mps 724 mmHg 71%
    04:00 +19°C° 0 mm 1 mps 724 mmHg 71%
    05:00 +16°C° 0 mm 0 mps 724 mmHg 70%
    06:00 +16°C° 0 mm 0 mps 724 mmHg 70%
    07:00 +18°C° 0 mm 0 mps 724 mmHg 63%
    08:00 +19°C° 0 mm 0 mps 725 mmHg 55%
    09:00 +21°C° 0 mm 0 mps 726 mmHg 48%
    10:00 +22°C° 0 mm 0 mps 725 mmHg 44%
    11:00 +23°C° 0 mm 0 mps 725 mmHg 40%
    12:00 +24°C° 0 mm 0 mps 725 mmHg 37%
    13:00 +26°C° 0 mm 1 mps 725 mmHg 36%
    14:00 +27°C° 0 mm 2 mps 724 mmHg 35%
    15:00 +27°C° 0 mm 2 mps 724 mmHg 34%
    16:00 +26°C° 0 mm 2 mps 724 mmHg 39%
    17:00 +25°C° 0 mm 2 mps 724 mmHg 43%
    18:00 +24°C° 0 mm 2 mps 724 mmHg 48%
    19:00 +23°C° 0 mm 2 mps 724 mmHg 51%
    20:00 +23°C° 0 mm 1 mps 724 mmHg 54%
    21:00 +20°C° 0 mm 0 mps 725 mmHg 58%
    22:00 +20°C° 0 mm 0 mps 724 mmHg 59%
    23:00 +20°C° 0 mm 0 mps 724 mmHg 59%

    22 October, Sunday

    Time Temperature Precipitation Wind Pressure Humidity
    00:00 +19°C° 0 mm 0 mps 724 mmHg 60%
    01:00 +19°C° 0 mm 0 mps 724 mmHg 62%
    02:00 +18°C° 0 mm 0 mps 724 mmHg 63%
    03:00 +18°C° 0 mm 0 mps 723 mmHg 65%
    04:00 +18°C° 0 mm 0 mps 723 mmHg 66%
    05:00 +17°C° 0 mm 0 mps 723 mmHg 66%
    06:00 +17°C° 0 mm 0 mps 723 mmHg 67%
    07:00 +19°C° 0 mm 0 mps 724 mmHg 61%
    08:00 +20°C° 0 mm 0 mps 724 mmHg 56%
    09:00 +23°C° 0 mm 1 mps 725 mmHg 50%
    10:00 +24°C° 0 mm 1 mps 725 mmHg 47%
    11:00 +25°C° 0 mm 1 mps 725 mmHg 44%
    12:00 +26°C° 0 mm 2 mps 724 mmHg 41%
    13:00 +26°C° 0 mm 2 mps 724 mmHg 41%
    14:00 +26°C° 0 mm 3 mps 724 mmHg 42%
    15:00 +26°C° 0 mm 4 mps 724 mmHg 42%
    16:00 +25°C° 0 mm 3 mps 724 mmHg 47%
    17:00 +25°C° 0 mm 3 mps 724 mmHg 51%
    18:00 +24°C° 0 mm 3 mps 724 mmHg 55%
    19:00 +23°C° 0 mm 2 mps 724 mmHg 59%
    20:00 +21°C° 0 mm 2 mps 724 mmHg 62%
    21:00 +22°C° 0 mm 1 mps 724 mmHg 65%
    22:00 +21°C° 0 mm 1 mps 724 mmHg 67%
    23:00 +21°C° 0 mm 1 mps 724 mmHg 68%

    23 October, Monday

    Time Temperature Precipitation Wind Pressure Humidity
    00:00 +21°C° 0 mm 1 mps 724 mmHg 70%
    01:00 +20°C° 0 mm 1 mps 723 mmHg 71%
    02:00 +20°C° 0 mm 1 mps 723 mmHg 72%
    03:00 +20°C° 0 mm 1 mps 723 mmHg 73%
    04:00 +19°C° 0 mm 1 mps 723 mmHg 73%
    05:00 +19°C° 0 mm 1 mps 723 mmHg 74%
    06:00 +19°C° 0 mm 1 mps 723 mmHg 74%
    07:00 +20°C° 0 mm 1 mps 723 mmHg 67%
    08:00 +22°C° 0 mm 1 mps 724 mmHg 60%
    09:00 +23°C° 0 mm 1 mps 724 mmHg 53%
    10:00 +24°C° 0 mm 1 mps 724 mmHg 48%
    11:00 +25°C° 0 mm 2 mps 724 mmHg 44%
    12:00 +26°C° 0 mm 2 mps 723 mmHg 40%
    13:00 +27°C° 0 mm 2 mps 723 mmHg 39%
    14:00 +27°C° 0 mm 3 mps 723 mmHg 38%
    15:00 +27°C° 0 mm 3 mps 722 mmHg 37%
    16:00 +26°C° 0 mm 3 mps 722 mmHg 41%
    17:00 +25°C° 0 mm 3 mps 722 mmHg 45%
    18:00 +24°C° 0 mm 3 mps 722 mmHg 49%
    19:00 +24°C° 0 mm 3 mps 722 mmHg 52%
    20:00 +23°C° 0 mm 2 mps 722 mmHg 55%
    21:00 +21°C° 0 mm 2 mps 722 mmHg 58%
    22:00 +22°C° 0 mm 1 mps 722 mmHg 59%
    23:00 +22°C° 0 mm 1 mps 722 mmHg 61%
    Show more